EHI
0 0 0 0 0 0 0 0 0 0 0 0 0 0 0 0 0 0 0 0 0 0 0 0 0 0 0 0 0 0 0 0 0 0 0 0 0 0
0 0 0 0 0 0 0 0 0 0 0 0 0 0 0 0 0 0 0 0 0 0 0 0 0 0 0 0 0 0 0 0 0 0 0 0 0 0
0 0 0 0 0 0 0 0 0 0 0 0 0 0 0 0 0 0 0 0 0 0 0 0 0 0 0 0 0 0 0 0 0 0 0 0 0 0
0 0 0 0 0 0 0 0 0 0 0 0 0 0 0 0 0 0 0 0 0 0 0 0 0 0 0 0 0 0 0 0 0 0 0 0 0 0
0 0 0 0 0 0 0 0 0 0 0 0 0 0 0 0 0 0 0 0 0 0 0 0 0 0 0 0 0 0 0 0 0 0 0 0 0 0
0 0 0 0 0 0 0 0 0 0 0 0 0 0 0 0 0 0 0 0 0 0 0 0 0 0 0 0 0 0 0 0 0 0 0 0 0 0
0 0 0 0 0 0 0 0 0 0 0 0 0 0 0 0 0 0 0 0 0 0 0 0 0 0 0 0 0 0 0 0 0 0 0 0 0 0
0 0 0 0 0 0 0 0 0 0 0 0 0 0 0 0 0 0 0 0 0 0 0 0 0 0 0 0 0 0 0 0 0 0 0 0 0 0
0 0 0 0 0 0 0 0 0 0 0 0 0 0 0 0 0 0 0 0 0 0 0 0 0 0 0 0 0 0 0 0 0 0 0 0 0 0
0 0 0 0 0 0 0 0 0 0 0 0 0 0 0 0 0 0 0 0 0 0 0 0 0 0 0 0 0 0 0 0 0 0 0 0 0 0
0 0 0 0 0 0 0 0 0 0 0 0 0 0 0 0 0 0 0 0 0 0 0 0 0 0 0 0 0 0 0 0 0 0 0 0 0 0
0 0 0 0 0 0 0 0 0 0 0 0 0 0 0 0 0 0 0 0 0 0 0 0 0 0 0 0 0 0 0 0 0 0 0 0 0 0
0 0 0 0 0 0 0 0 0 0 0 0 0 0 0 0 0 0 0 0 0 0 0 0 0 0 0 0 0 0 0 0 0 0 0 0 0 0
0 0 0 0 0 0 0 0 0 0 0 0 0 0 0 0 0 0 0 0 0 0 0 0 0 0 0 0 0 0 0 0 0 0 0 0 0 0
0 0 0 0 0 0 0 0 0 0 0 0 0 0 0 0 0 0 0 0 0 0 0 0 0 0 0 0 0 0 0 0 0 0 0 0 0 0
0 0 0 0 0 0 0 0 0 0 0 0 0 0 0 0 0 0 0 0 0 0 0 0 0 0 0 0 0 0 0 0 0 0 0 0 0 0
0 0 0 0 0 0 0 0 0 0 0 0 0 0 0 0 0 0 0 0 0 0 0 0 0 0 0 0 0 0 0 0 0 0 0 0 0 0
0 0 0 0 0 0 0 0 0 0 0 0 0 0 0 0 0 0 0 0 0 0 0 0 0 0 0 0 0 0 0 0 0 0 0 0 0 0
0 0 0 0 0 0 0 0 0 0 0 0 0 0 0 0 0 0 0 0 0 0 0 0 0 0 0 0 0 0 0 0 0 0 0 0 0 0
0 0 0 0 0 0 0 0 0 0 0 0 0 0 0 0 0 0 0 0 0 0 0 0 0 0 0 0 0 0 0 0 0 0 0 0 0 0
0 0 0 0 0 0 0 0 0 0 0 0 0 0 0 0 0 0 0 0 0 0 0 0 0 0 0 0 0 0 0 0 0 0 0 0 0 0
0 0 0 0 0 0 0 0 0 0 0 0 0 0 0 0 0 0 0 0 0 0 0 0 0 0 0 0 0 0 0 0 0 0 0 0 0 0
0 0 0 0 0 0 0 0 0 0 0 0 0 0 0 0 0 0 0 0 0 0 0 0 0 0 0 0 0 0 0 0 0 0 0 0 0 0
Wind_Speed
5 6 5 5 5 5 5 5 5 8 8 5 4 4 5 5 8 7 7 11 14 14 13 13 14 15 15 15 15 15 14 13 13 14 16 17 18 17
4 6 6 5 5 4 5 5 5 7 9 5 5 5 6 6 8 7 7 10 11 12 12 13 13 14 14 14 14 14 13 13 13 14 16 16 16 16
5 6 7 6 5 4 4 5 5 6 10 7 4 4 6 6 5 5 5 5 6 10 12 12 12 12 12 13 13 13 13 13 12 13 15 15 14 14
6 6 7 6 6 5 5 6 6 6 7 10 6 4 5 6 5 5 4 4 4 7 10 10 11 11 11 11 11 11 11 11 10 11 12 12 13 13
6 7 7 7 7 6 6 7 6 6 6 7 8 5 4 3 4 4 4 4 4 6 7 9 10 10 11 10 10 10 9 9 10 10 11 11 12 13
7 7 7 8 8 8 7 7 6 6 6 6 7 5 4 3 3 3 4 3 4 4 5 6 8 9 9 9 9 9 10 10 10 10 10 10 11 12
6 6 7 9 11 9 8 6 6 5 5 6 6 5 4 3 3 3 5 3 4 3 3 4 4 4 4 7 8 9 10 10 10 11 11 10 10 11
7 7 7 9 10 12 13 11 9 7 7 6 6 6 6 5 4 4 3 3 3 2 2 4 2 3 3 3 6 8 9 10 10 10 10 9 9 10
6 7 7 7 9 8 10 11 10 11 11 8 8 8 7 5 4 4 4 4 5 3 2 3 2 3 3 4 7 8 8 9 9 9 9 9 9 9
6 7 7 7 7 8 7 7 7 7 8 7 7 7 6 5 5 6 5 3 2 2 1 2 2 3 3 2 5 6 7 8 8 8 8 8 7 7
7 7 7 7 11 11 8 8 7 6 7 9 9 8 8 8 5 2 2 2 3 3 1 2 1 2 2 2 3 4 5 6 6 7 7 6 5 4
6 6 9 10 11 11 7 7 8 7 5 6 6 6 5 5 5 4 4 3 2 2 2 1 1 0 1 2 2 2 2 3 4 4 5 4 4 2
5 5 6 11 12 12 10 7 8 7 5 4 4 3 3 2 2 2 2 3 3 3 2 1 1 1 1 1 1 2 1 2 2 2 3 4 4 3
6 5 6 10 11 11 8 8 9 7 3 3 3 3 2 2 1 1 1 1 1 2 2 2 2 2 1 2 2 2 2 2 2 2 1 2 3 3
5 8 10 10 9 7 8 9 7 3 2 2 3 3 2 2 1 0 1 1 2 2 1 1 1 1 1 2 1 1 2 2 2 1 1 1 1 1
5 6 8 8 7 7 6 5 3 3 3 2 2 2 1 1 1 1 0 1 2 2 3 3 1 1 1 1 1 1 1 1 2 2 2 2 1 1
4 3 3 3 3 3 3 3 3 2 2 2 1 1 1 0 0 0 0 0 1 0 2 3 3 3 2 1 0 0 0 1 1 1 1 2 2 2
4 3 3 3 3 3 3 3 2 2 2 2 2 1 1 0 0 1 1 1 1 1 0 0 1 2 2 3 2 0 0 0 1 1 1 1 2 3
3 2 3 3 3 3 2 2 3 3 2 2 2 1 1 0 0 1 1 1 1 1 0 0 0 1 1 1 3 3 1 1 1 1 1 1 2 3
2 2 3 3 3 3 2 2 2 2 2 2 2 2 1 0 0 0 1 1 1 1 1 1 1 0 1 1 1 2 3 1 1 1 1 2 2 3
3 3 3 3 3 3 2 2 2 2 2 2 2 2 1 0 0 0 1 2 1 1 1 0 1 1 1 2 2 1 2 2 1 1 1 1 2 2
4 4 3 3 3 2 2 2 2 2 2 2 2 1 1 0 0 1 1 1 1 1 1 1 1 1 2 2 1 0 2 3 3 3 2 2 1 1
4 4 3 3 3 2 2 2 2 2 2 1 1 1 1 0 0 1 1 2 2 2 2 2 1 2 2 1 1 0 1 3 3 3 3 4 3 2
Wind_Direction
252 251 252 252 251 252 254 251 260 277 274 260 256 249 245 247 250 243 245 253 253 253 252 250 250 249 247 247 247 248 250 248 246 246 248 252 252 252
256 261 259 259 260 254 253 252 248 259 271 262 256 264 261 264 263 251 248 259 253 252 253 252 251 251 248 246 245 245 244 245 245 246 249 251 253 252
262 265 268 263 260 259 260 258 255 254 268 277 264 269 262 262 266 255 252 249 250 253 254 252 251 250 250 246 243 242 242 243 245 246 248 250 253 255
261 264 271 272 263 261 257 257 258 253 259 276 279 270 265 263 261 259 267 266 259 262 257 255 252 249 249 246 241 241 241 240 242 243 246 249 253 257
255 260 268 273 266 264 261 260 261 262 256 268 276 268 270 278 275 272 270 266 271 269 261 258 253 252 248 245 241 239 240 240 241 242 246 250 252 256
254 254 258 265 266 264 263 261 263 263 261 264 271 274 273 277 267 266 275 267 270 275 265 264 257 255 250 244 241 239 238 240 243 245 246 248 252 254
265 260 261 270 274 271 271 268 263 263 265 264 267 271 267 272 263 260 267 272 271 249 258 264 259 254 248 244 243 241 240 241 245 246 245 245 248 250
274 275 272 269 278 279 280 279 271 266 267 263 260 264 263 260 258 257 261 275 275 240 240 268 253 253 255 243 241 244 244 243 245 245 244 243 243 247
270 276 282 281 285 275 276 278 270 268 264 260 260 259 261 258 254 253 252 257 261 248 256 272 265 265 270 257 247 245 246 247 247 244 244 244 245 247
268 268 272 276 275 284 278 272 268 266 264 260 254 256 259 256 244 247 250 267 294 283 221 248 263 270 288 283 261 251 252 250 244 241 243 245 244 243
276 275 275 272 281 290 283 275 276 276 278 275 276 276 277 275 265 246 237 248 278 270 229 213 239 289 294 288 292 286 269 261 253 249 246 242 235 238
281 277 280 284 287 290 279 272 273 279 282 285 285 285 275 267 263 236 219 228 256 257 219 196 218 228 287 289 312 324 311 285 273 258 249 242 233 228
285 284 281 290 292 293 293 280 279 287 275 270 274 272 265 254 257 263 246 225 228 241 217 194 229 232 224 275 317 325 316 300 294 274 264 251 243 229
281 282 283 294 298 301 300 298 301 300 273 262 267 267 268 270 271 271 271 296 275 249 225 210 209 211 213 268 281 316 327 321 314 305 291 282 266 255
287 296 300 302 305 304 302 307 308 294 281 271 264 267 267 256 244 232 56 55 35 7 345 297 206 187 194 223 237 279 309 318 323 324 325 304 271 239
301 305 313 315 309 307 311 314 308 297 289 279 279 275 263 234 218 218 208 91 53 15 15 22 31 143 159 240 209 252 296 298 331 341 342 337 321 291
310 310 309 313 314 316 319 317 319 327 326 314 296 299 289 271 300 29 94 72 100 28 4 17 38 60 67 104 174 222 224 327 314 330 348 344 323 295
323 316 313 312 308 308 312 320 329 327 324 319 310 298 273 243 18 54 80 100 105 97 63 3 45 44 42 28 15 211 21 344 333 342 339 327 312 305
327 313 309 308 308 311 313 318 322 322 322 323 322 318 313 320 113 109 114 106 104 102 70 339 353 93 83 336 339 358 353 320 334 347 333 291 278 283
329 312 309 309 313 318 319 323 325 326 331 333 334 329 323 7 60 109 144 137 126 110 72 21 8 12 189 210 250 320 328 288 277 306 321 318 290 287
324 316 312 313 316 319 321 323 323 321 325 329 325 319 317 21 105 127 145 136 114 123 121 4 329 12 68 80 69 351 335 332 286 259 294 310 306 313
320 317 316 318 319 322 322 321 323 320 320 320 316 315 314 321 137 145 151 140 123 118 99 45 15 37 60 91 97 347 329 341 357 4 329 272 226 233
317 316 317 320 320 319 315 315 315 310 308 307 307 313 322 331 135 143 143 132 123 119 106 89 55 53 57 83 102 49 5 348 348 358 348 356 360 325